Time,TemperatureF,DewpointF,PressureIn,WindDirection,WindDirectionDegrees,WindSpeedMPH,WindSpeedGustMPH,Humidity,HourlyPrecipIn,Conditions,Clouds,dailyrainin,SoftwareType,DateUTC
2013-05-01 00:02:00,26.0,25.0,-100.00,WNW,284,17.0,24.0,98,0.00,,,-99.99,,2013-05-01 06:02:00,
2013-05-01 00:11:00,26.0,25.0,-100.00,WNW,284,12.0,17.0,98,0.00,,,-99.99,,2013-05-01 06:11:00,
2013-05-01 00:22:00,26.0,25.0,-100.00,WNW,284,11.0,16.0,98,0.01,,,-99.99,,2013-05-01 06:22:00,
2013-05-01 00:32:00,26.0,25.0,-100.00,WNW,284,12.0,17.0,98,0.00,,,-99.99,,2013-05-01 06:32:00,
2013-05-01 00:42:00,25.0,24.0,-100.00,WNW,284,14.0,20.0,98,0.00,,,-99.99,,2013-05-01 06:42:00,
2013-05-01 00:51:00,25.0,25.0,-100.00,WNW,284,13.0,16.0,98,0.00,,,-99.99,,2013-05-01 06:51:00,
2013-05-01 01:01:00,25.0,25.0,-100.00,WNW,284,14.0,19.0,98,0.00,,,-99.99,,2013-05-01 07:01:00,
2013-05-01 01:11:00,25.0,25.0,-100.00,WNW,284,16.0,21.0,98,0.00,,,-99.99,,2013-05-01 07:11:00,
2013-05-01 01:21:00,26.0,25.0,-100.00,WNW,285,14.0,19.0,98,0.00,,,-99.99,,2013-05-01 07:21:00,
2013-05-01 01:32:00,26.0,25.0,-100.00,NW,308,11.0,17.0,98,0.00,,,-99.99,,2013-05-01 07:32:00,
2013-05-01 01:41:00,26.0,26.0,-100.00,NW,309,12.0,20.0,98,0.01,,,-99.99,,2013-05-01 07:41:00,
2013-05-01 01:52:00,26.0,26.0,-100.00,NW,311,12.0,19.0,98,0.00,,,-99.99,,2013-05-01 07:52:00,
2013-05-01 02:01:00,26.0,26.0,-100.00,NW,311,12.0,19.0,98,0.00,,,-99.99,,2013-05-01 08:01:00,
2013-05-01 02:11:00,27.0,26.0,-100.00,NW,311,11.0,16.0,98,0.00,,,-99.99,,2013-05-01 08:11:00,
2013-05-01 02:21:00,27.0,26.0,-100.00,NW,311,12.0,17.0,98,0.00,,,-99.99,,2013-05-01 08:21:00,
2013-05-01 02:32:00,27.0,26.0,-100.00,NW,311,11.0,17.0,98,0.00,,,-99.99,,2013-05-01 08:32:00,
2013-05-01 02:42:00,26.0,26.0,-100.00,NW,311,13.0,17.0,98,0.00,,,-99.99,,2013-05-01 08:42:00,
2013-05-01 02:52:00,26.0,26.0,-100.00,NW,311,12.0,17.0,98,0.00,,,-99.99,,2013-05-01 08:52:00,
2013-05-01 03:01:00,26.0,25.0,-100.00,NW,311,16.0,20.0,98,0.01,,,-99.99,,2013-05-01 09:01:00,
2013-05-01 03:11:00,26.0,25.0,-100.00,NW,311,16.0,20.0,98,0.01,,,-99.99,,2013-05-01 09:11:00,
2013-05-01 03:21:00,25.0,24.0,-100.00,NW,311,17.0,20.0,98,0.01,,,-99.99,,2013-05-01 09:21:00,
2013-05-01 03:33:00,24.0,23.0,-100.00,NW,311,17.0,21.0,97,0.00,,,-99.99,,2013-05-01 09:33:00,
2013-05-01 03:42:00,24.0,24.0,-100.00,NW,311,16.0,19.0,97,0.00,,,-99.99,,2013-05-01 09:42:00,
2013-05-01 03:52:00,24.0,24.0,-100.00,NW,311,15.0,19.0,97,0.01,,,-99.99,,2013-05-01 09:52:00,
2013-05-01 04:02:00,24.0,23.0,-100.00,NW,311,17.0,20.0,97,0.01,,,-99.99,,2013-05-01 10:02:00,
2013-05-01 04:12:00,24.0,23.0,-100.00,NW,311,17.0,20.0,97,0.01,,,-99.99,,2013-05-01 10:12:00,
2013-05-01 04:22:00,23.0,23.0,-100.00,NW,311,16.0,20.0,97,0.01,,,-99.99,,2013-05-01 10:22:00,
2013-05-01 04:33:00,23.0,23.0,-100.00,NW,311,16.0,20.0,97,0.01,,,-99.99,,2013-05-01 10:33:00,
2013-05-01 04:42:00,23.0,23.0,-100.00,NW,311,17.0,22.0,97,0.01,,,-99.99,,2013-05-01 10:42:00,
2013-05-01 04:52:00,23.0,22.0,-100.00,NW,311,19.0,24.0,97,0.01,,,-99.99,,2013-05-01 10:52:00,
2013-05-01 05:02:00,23.0,22.0,-100.00,NW,311,21.0,26.0,97,0.01,,,-99.99,,2013-05-01 11:02:00,
2013-05-01 05:11:00,23.0,22.0,-100.00,NW,311,21.0,27.0,97,0.01,,,-99.99,,2013-05-01 11:11:00,
2013-05-01 05:22:00,22.0,22.0,-100.00,NW,311,23.0,27.0,97,0.01,,,-99.99,,2013-05-01 11:22:00,
2013-05-01 05:32:00,22.0,22.0,-100.00,NW,311,21.0,27.0,97,0.01,,,-99.99,,2013-05-01 11:32:00,
2013-05-01 05:42:00,22.0,22.0,-100.00,NW,311,20.0,25.0,97,0.01,,,-99.99,,2013-05-01 11:42:00,
2013-05-01 05:51:00,22.0,22.0,-100.00,NW,311,17.0,24.0,97,0.01,,,-99.99,,2013-05-01 11:51:00,
2013-05-01 06:01:00,22.0,22.0,-100.00,NW,312,16.0,21.0,97,0.01,,,-99.99,,2013-05-01 12:01:00,
2013-05-01 06:11:00,22.0,21.0,-100.00,NW,312,11.0,16.0,96,0.01,,,-99.99,,2013-05-01 12:11:00,
2013-05-01 06:21:00,22.0,22.0,-100.00,NW,311,9.0,12.0,96,0.01,,,-99.99,,2013-05-01 12:21:00,
2013-05-01 06:31:00,23.0,22.0,-100.00,NW,312,7.0,11.0,97,0.01,,,-99.99,,2013-05-01 12:31:00,
2013-05-01 06:41:00,22.0,22.0,-100.00,NW,311,8.0,12.0,96,0.04,,,-99.99,,2013-05-01 12:41:00,
2013-05-01 06:51:00,22.0,21.0,-100.00,NW,312,10.0,14.0,96,0.00,,,-99.99,,2013-05-01 12:51:00,
2013-05-01 07:01:00,22.0,21.0,-100.00,NW,312,12.0,16.0,96,0.00,,,-99.99,,2013-05-01 13:01:00,
2013-05-01 07:11:00,22.0,21.0,-100.00,NW,312,12.0,15.0,96,0.04,,,-99.99,,2013-05-01 13:11:00,
2013-05-01 07:21:00,22.0,20.0,-100.00,NW,312,12.0,17.0,96,0.03,,,-99.99,,2013-05-01 13:21:00,
2013-05-01 07:32:00,21.0,20.0,-100.00,NW,312,13.0,16.0,96,0.01,,,-99.99,,2013-05-01 13:32:00,
2013-05-01 07:52:00,21.0,20.0,-100.00,NW,312,15.0,19.0,96,0.00,,,-99.99,,2013-05-01 13:52:00,
2013-05-01 08:02:00,21.0,20.0,-100.00,NW,312,15.0,18.0,95,0.01,,,-99.99,,2013-05-01 14:02:00,
2013-05-01 08:11:00,21.0,19.0,-100.00,NW,312,14.0,17.0,95,0.04,,,-99.99,,2013-05-01 14:11:00,
2013-05-01 08:21:00,21.0,20.0,-100.00,NW,312,13.0,17.0,96,0.01,,,-99.99,,2013-05-01 14:21:00,
2013-05-01 08:32:00,21.0,19.0,-100.00,NW,312,12.0,16.0,95,0.00,,,-99.99,,2013-05-01 14:32:00,
2013-05-01 08:42:00,21.0,19.0,-100.00,NW,312,13.0,17.0,94,0.01,,,-99.99,,2013-05-01 14:42:00,
2013-05-01 08:51:00,20.0,19.0,-100.00,NW,312,14.0,18.0,94,0.01,,,-99.99,,2013-05-01 14:51:00,
2013-05-01 09:01:00,21.0,19.0,-100.00,NW,312,13.0,17.0,94,0.01,,,-99.99,,2013-05-01 15:01:00,
2013-05-01 09:11:00,21.0,19.0,-100.00,NW,312,12.0,17.0,94,0.00,,,-99.99,,2013-05-01 15:11:00,
2013-05-01 09:21:00,21.0,19.0,-100.00,NW,312,11.0,18.0,93,0.00,,,-99.99,,2013-05-01 15:21:00,
2013-05-01 09:33:00,21.0,19.0,-100.00,NW,312,11.0,16.0,93,0.00,,,-99.99,,2013-05-01 15:33:00,
2013-05-01 09:42:00,21.0,19.0,-100.00,NW,312,11.0,17.0,93,0.00,,,-99.99,,2013-05-01 15:42:00,
2013-05-01 09:53:00,21.0,19.0,-100.00,NW,312,12.0,15.0,93,0.00,,,-99.99,,2013-05-01 15:53:00,
2013-05-01 10:03:00,21.0,19.0,-100.00,NW,312,11.0,17.0,92,0.00,,,-99.99,,2013-05-01 16:03:00,
2013-05-01 10:12:00,21.0,19.0,-100.00,NW,312,12.0,17.0,93,0.00,,,-99.99,,2013-05-01 16:12:00,
2013-05-01 10:22:00,21.0,19.0,-100.00,NW,312,12.0,19.0,93,0.00,,,-99.99,,2013-05-01 16:22:00,
2013-05-01 10:32:00,20.0,18.0,-100.00,NW,312,15.0,22.0,91,0.00,,,-99.99,,2013-05-01 16:32:00,
2013-05-01 10:42:00,21.0,19.0,-100.00,NW,312,14.0,20.0,92,0.00,,,-99.99,,2013-05-01 16:42:00,
2013-05-01 10:53:00,21.0,19.0,-100.00,NW,312,14.0,19.0,92,0.00,,,-99.99,,2013-05-01 16:53:00,
2013-05-01 11:02:00,21.0,18.0,-100.00,NW,312,14.0,19.0,91,0.00,,,-99.99,,2013-05-01 17:02:00,
2013-05-01 11:12:00,21.0,19.0,-100.00,NW,312,12.0,16.0,92,0.00,,,-99.99,,2013-05-01 17:12:00,
2013-05-01 11:21:00,21.0,19.0,-100.00,NW,312,14.0,18.0,93,0.00,,,-99.99,,2013-05-01 17:21:00,
2013-05-01 11:32:00,21.0,19.0,-100.00,NW,312,15.0,19.0,93,0.00,,,-99.99,,2013-05-01 17:32:00,
2013-05-01 11:42:00,21.0,19.0,-100.00,NW,312,14.0,19.0,92,0.01,,,-99.99,,2013-05-01 17:42:00,
2013-05-01 11:52:00,21.0,19.0,-100.00,NW,312,14.0,19.0,92,0.03,,,-99.99,,2013-05-01 17:52:00,
2013-05-01 12:01:00,20.0,18.0,-100.00,NW,312,16.0,21.0,91,0.01,,,-99.99,,2013-05-01 18:01:00,
2013-05-01 12:11:00,21.0,19.0,-100.00,NW,312,12.0,17.0,92,0.01,,,-99.99,,2013-05-01 18:11:00,
2013-05-01 12:22:00,20.0,18.0,-100.00,NW,312,16.0,20.0,93,0.03,,,-99.99,,2013-05-01 18:22:00,
2013-05-01 12:32:00,20.0,19.0,-100.00,NW,312,16.0,20.0,93,0.04,,,-99.99,,2013-05-01 18:32:00,
2013-05-01 12:41:00,21.0,20.0,-100.00,NW,312,16.0,21.0,93,0.06,,,-99.99,,2013-05-01 18:41:00,
2013-05-01 12:52:00,21.0,19.0,-100.00,NW,312,16.0,21.0,92,0.01,,,-99.99,,2013-05-01 18:52:00,
2013-05-01 13:02:00,21.0,20.0,-100.00,NW,312,15.0,19.0,92,0.01,,,-99.99,,2013-05-01 19:02:00,
2013-05-01 13:11:00,21.0,20.0,-100.00,NW,312,12.0,18.0,92,0.01,,,-99.99,,2013-05-01 19:11:00,
2013-05-01 13:22:00,21.0,19.0,-100.00,NW,312,12.0,16.0,92,0.01,,,-99.99,,2013-05-01 19:22:00,
2013-05-01 13:32:00,21.0,20.0,-100.00,NW,312,12.0,17.0,93,0.03,,,-99.99,,2013-05-01 19:32:00,
2013-05-01 13:42:00,21.0,19.0,-100.00,NW,312,11.0,14.0,92,0.01,,,-99.99,,2013-05-01 19:42:00,
2013-05-01 13:52:00,22.0,20.0,-100.00,NW,312,10.0,15.0,92,0.00,,,-99.99,,2013-05-01 19:52:00,
2013-05-01 14:01:00,22.0,20.0,-100.00,NW,312,11.0,16.0,92,0.01,,,-99.99,,2013-05-01 20:01:00,
2013-05-01 14:11:00,21.0,19.0,-100.00,NW,312,9.0,13.0,91,0.00,,,-99.99,,2013-05-01 20:11:00,
2013-05-01 14:21:00,21.0,19.0,-100.00,NW,312,10.0,16.0,91,0.01,,,-99.99,,2013-05-01 20:21:00,
2013-05-01 14:32:00,22.0,20.0,-100.00,NW,312,11.0,16.0,91,0.01,,,-99.99,,2013-05-01 20:32:00,
2013-05-01 14:42:00,21.0,19.0,-100.00,NW,312,10.0,15.0,91,0.01,,,-99.99,,2013-05-01 20:42:00,
2013-05-01 14:52:00,20.0,19.0,-100.00,NW,312,13.0,16.0,93,0.07,,,-99.99,,2013-05-01 20:52:00,
2013-05-01 15:01:00,20.0,19.0,-100.00,NW,312,14.0,17.0,94,0.08,,,-99.99,,2013-05-01 21:01:00,
2013-05-01 15:11:00,20.0,19.0,-100.00,NW,312,14.0,17.0,94,0.00,,,-99.99,,2013-05-01 21:11:00,
2013-05-01 15:22:00,21.0,19.0,-100.00,NW,312,14.0,18.0,94,0.01,,,-99.99,,2013-05-01 21:22:00,
2013-05-01 15:32:00,20.0,19.0,-100.00,NW,312,15.0,19.0,94,0.00,,,-99.99,,2013-05-01 21:32:00,
2013-05-01 15:43:00,20.0,19.0,-100.00,NW,311,16.0,19.0,94,0.00,,,-99.99,,2013-05-01 21:43:00,
2013-05-01 15:53:00,20.0,19.0,-100.00,NW,312,16.0,20.0,94,0.01,,,-99.99,,2013-05-01 21:53:00,
2013-05-01 16:03:00,21.0,19.0,-100.00,NW,311,16.0,19.0,94,0.00,,,-99.99,,2013-05-01 22:03:00,
2013-05-01 16:12:00,21.0,19.0,-100.00,NW,312,16.0,20.0,94,0.00,,,-99.99,,2013-05-01 22:12:00,
2013-05-01 16:23:00,21.0,19.0,-100.00,NW,311,17.0,20.0,94,0.01,,,-99.99,,2013-05-01 22:23:00,
2013-05-01 16:33:00,21.0,19.0,-100.00,NW,311,16.0,19.0,94,0.01,,,-99.99,,2013-05-01 22:33:00,
2013-05-01 16:42:00,21.0,19.0,-100.00,NW,311,16.0,19.0,93,0.01,,,-99.99,,2013-05-01 22:42:00,
2013-05-01 16:52:00,21.0,19.0,-100.00,NW,311,15.0,17.0,94,0.00,,,-99.99,,2013-05-01 22:52:00,
2013-05-01 17:02:00,21.0,19.0,-100.00,NW,312,14.0,17.0,94,0.01,,,-99.99,,2013-05-01 23:02:00,
2013-05-01 17:11:00,21.0,20.0,-100.00,NW,311,15.0,17.0,94,0.01,,,-99.99,,2013-05-01 23:11:00,
2013-05-01 17:21:00,21.0,19.0,-100.00,NW,312,16.0,20.0,94,0.01,,,-99.99,,2013-05-01 23:21:00,
2013-05-01 17:32:00,21.0,19.0,-100.00,NW,312,16.0,18.0,94,0.00,,,-99.99,,2013-05-01 23:32:00,
2013-05-01 17:42:00,21.0,19.0,-100.00,NW,312,16.0,19.0,95,0.00,,,-99.99,,2013-05-01 23:42:00,
2013-05-01 17:52:00,20.0,19.0,-100.00,NW,311,17.0,19.0,94,0.00,,,-99.99,,2013-05-01 23:52:00,
2013-05-01 18:01:00,20.0,19.0,-100.00,NW,312,16.0,18.0,95,0.00,,,-99.99,,2013-05-02 00:01:00,
2013-05-01 18:11:00,20.0,19.0,-100.00,NW,312,17.0,19.0,94,0.01,,,-99.99,,2013-05-02 00:11:00,
2013-05-01 18:21:00,20.0,18.0,-100.00,NW,312,17.0,20.0,94,0.01,,,-99.99,,2013-05-02 00:21:00,
2013-05-01 18:32:00,20.0,18.0,-100.00,NW,312,19.0,22.0,94,0.04,,,-99.99,,2013-05-02 00:32:00,
2013-05-01 18:52:00,19.0,18.0,-100.00,NW,312,17.0,21.0,93,0.04,,,-99.99,,2013-05-02 00:52:00,
2013-05-01 19:01:00,19.0,17.0,-100.00,NW,312,17.0,20.0,93,0.01,,,-99.99,,2013-05-02 01:01:00,
2013-05-01 19:11:00,19.0,18.0,-100.00,NW,312,17.0,20.0,94,0.01,,,-99.99,,2013-05-02 01:11:00,
2013-05-01 19:21:00,19.0,18.0,-100.00,NW,312,17.0,21.0,94,0.04,,,-99.99,,2013-05-02 01:21:00,
2013-05-01 19:32:00,19.0,17.0,-100.00,NW,312,18.0,21.0,94,0.01,,,-99.99,,2013-05-02 01:32:00,
2013-05-01 19:42:00,19.0,17.0,-100.00,NW,312,17.0,21.0,92,0.03,,,-99.99,,2013-05-02 01:42:00,
2013-05-01 19:52:00,19.0,17.0,-100.00,NW,312,16.0,19.0,93,0.00,,,-99.99,,2013-05-02 01:52:00,
2013-05-01 20:02:00,19.0,17.0,-100.00,NW,312,14.0,17.0,93,0.01,,,-99.99,,2013-05-02 02:02:00,
2013-05-01 20:11:00,19.0,18.0,-100.00,NW,312,14.0,16.0,93,0.03,,,-99.99,,2013-05-02 02:11:00,
2013-05-01 20:21:00,19.0,17.0,-100.00,NW,312,11.0,14.0,92,0.01,,,-99.99,,2013-05-02 02:21:00,
2013-05-01 20:32:00,19.0,17.0,-100.00,NW,312,11.0,14.0,92,0.00,,,-99.99,,2013-05-02 02:32:00,
2013-05-01 20:42:00,19.0,17.0,-100.00,NW,312,11.0,14.0,92,0.00,,,-99.99,,2013-05-02 02:42:00,
2013-05-01 20:51:00,19.0,17.0,-100.00,NW,312,11.0,14.0,92,0.00,,,-99.99,,2013-05-02 02:51:00,
2013-05-01 21:01:00,19.0,18.0,-100.00,NW,312,7.0,10.0,93,0.00,,,-99.99,,2013-05-02 03:01:00,
2013-05-01 21:11:00,19.0,17.0,-100.00,NW,312,7.0,9.0,92,0.01,,,-99.99,,2013-05-02 03:11:00,
2013-05-01 21:22:00,19.0,17.0,-100.00,NW,312,8.0,10.0,92,0.00,,,-99.99,,2013-05-02 03:22:00,
2013-05-01 21:32:00,19.0,17.0,-100.00,NW,312,6.0,9.0,93,0.00,,,-99.99,,2013-05-02 03:32:00,
2013-05-01 21:42:00,19.0,17.0,-100.00,NW,312,5.0,8.0,93,0.00,,,-99.99,,2013-05-02 03:42:00,
2013-05-01 21:52:00,18.0,16.0,-100.00,NW,320,6.0,9.0,91,0.00,,,-99.99,,2013-05-02 03:52:00,
2013-05-01 22:03:00,18.0,16.0,-100.00,NW,320,7.0,9.0,92,0.01,,,-99.99,,2013-05-02 04:03:00,
2013-05-01 22:12:00,17.0,15.0,-100.00,NW,320,7.0,9.0,92,0.00,,,-99.99,,2013-05-02 04:12:00,
2013-05-01 22:23:00,17.0,15.0,-100.00,NW,320,7.0,9.0,93,0.01,,,-99.99,,2013-05-02 04:23:00,
2013-05-01 22:33:00,17.0,15.0,-100.00,NW,320,6.0,7.0,93,0.01,,,-99.99,,2013-05-02 04:33:00,
2013-05-01 22:42:00,17.0,15.0,-100.00,NW,320,4.0,6.0,93,0.00,,,-99.99,,2013-05-02 04:42:00,
2013-05-01 22:52:00,16.0,15.0,-100.00,NW,320,4.0,6.0,93,0.00,,,-99.99,,2013-05-02 04:52:00,
2013-05-01 23:02:00,13.0,11.0,-100.00,NW,325,4.0,6.0,92,0.00,,,-99.99,,2013-05-02 05:02:00,
2013-05-01 23:12:00,15.0,14.0,-100.00,NNW,328,2.0,6.0,95,0.00,,,-99.99,,2013-05-02 05:12:00,
2013-05-01 23:22:00,12.0,10.0,-100.00,NNW,328,4.0,6.0,93,0.00,,,-99.99,,2013-05-02 05:22:00,
2013-05-01 23:32:00,11.0,9.0,-100.00,NNW,328,6.0,7.0,91,0.00,,,-99.99,,2013-05-02 05:32:00,
2013-05-01 23:42:00,10.0,8.0,-100.00,NNW,347,9.0,11.0,91,0.00,,,-99.99,,2013-05-02 05:42:00,
2013-05-01 23:52:00,11.0,8.0,-100.00,North,0,9.0,10.0,88,0.00,,,-99.99,,2013-05-02 05:52:00,